Dickinson, ND

6:19 AM MDT on July 29, 2017 (GMT -0600)
Dickinson Municipal

Weather History for KDIK - November, 2013

Change the Weather History Date:

Friday, November 1, 2013

  Actual Average Record
Temperature  
Mean Temperature 40 °F 37 °F  
Max Temperature 49 °F 48 °F 74 °F (1983)
Min Temperature 30 °F 25 °F -12 °F (1911)
Degree Days  
Heating Degree Days 25 28  
Month to date heating degree days 25 28  
Since 1 July heating degree days 906 1039  
Cooling Degree Days 0 0  
Month to date cooling degree days 0 0  
Year to date cooling degree days 386 419  
Moisture  
Dew Point 31 °F    
Average Humidity 68    
Maximum Humidity 89    
Minimum Humidity 46    
Precipitation  
Precipitation 0.02 in 0.03 in 1.82 in (2000)
Month to date precipitation 0.02 0.03  
Year to date precipitation 20.96 15.02  
Sea Level Pressure  
Sea Level Pressure 29.90 in    
Wind  
Wind Speed 16 mph (WNW)    
Max Wind Speed 31 mph    
Max Gust Speed 39 mph    
Visibility 10 miles    
Events Rain    
T = Trace of Precipitation, MM = Missing Value Source: NWS Daily Summary

Daily Weather History Graph

Daily Weather History Graph

Search for Another Location

Airport or City:

Trip Planner

Search our weather history database for the weather conditions in past years. The results will help you decide how hot, cold, wet, or windy it might be!

Date:

Astronomy

Nov. 01, 2013 Rise Set
Actual Time 7:33 AM MDT 5:34 PM MDT
Civil Twilight 7:02 AM MDT 6:06 PM MDT
Nautical Twilight 6:26 AM MDT 6:42 PM MDT
Astronomical Twilight 5:50 AM MDT 7:17 PM MDT
Moon 5:22 AM MDT (11/1) 4:34 PM MDT (11/1)
Length of Visible Light 11h 04m
Length of Day
10h 01m
Waning Crescent, 4% of the Moon is Illuminated
Nov 1
Waning Crescent
Nov 3
New
Nov 9
First Quarter
Nov 17
Full
Nov 25
Last Quarter

Hourly Weather History & Observations

Time (MDT) Temp. Windchill Dew Point Humidity Pressure Visibility Wind Dir Wind Speed Gust Speed Precip Events Conditions
12:56 AM 37.0 °F 29.3 °F 30.9 °F 79% 29.71 in 10.0 mi West 11.5 mph - N/A   Scattered Clouds
1:56 AM 39.0 °F 30.3 °F 33.1 °F 79% 29.70 in 10.0 mi West 16.1 mph - N/A   Clear
2:56 AM 36.0 °F 27.5 °F 32.0 °F 86% 29.71 in 10.0 mi West 12.7 mph - N/A   Clear
3:56 AM 37.0 °F 28.9 °F 32.0 °F 82% 29.73 in 10.0 mi West 12.7 mph - N/A   Partly Cloudy
4:56 AM 39.0 °F 30.3 °F 32.0 °F 76% 29.73 in 10.0 mi West 16.1 mph 21.9 mph N/A   Partly Cloudy
5:56 AM 42.1 °F 33.1 °F 32.0 °F 67% 29.75 in 10.0 mi WNW 20.7 mph 32.2 mph N/A   Overcast
6:25 AM 39.2 °F 30.2 °F 33.8 °F 81% 29.73 in 10.0 mi WNW 17.3 mph 25.3 mph 0.00 in Rain Light Rain
6:56 AM 37.9 °F 29.2 °F 34.0 °F 86% 29.79 in 10.0 mi WNW 15.0 mph - 0.02 in   Overcast
7:56 AM 37.9 °F 27.3 °F 34.0 °F 86% 29.82 in 10.0 mi WNW 21.9 mph 27.6 mph 0.00 in   Overcast
8:56 AM 39.0 °F 28.8 °F 35.1 °F 86% 29.84 in 10.0 mi WNW 21.9 mph 32.2 mph 0.00 in   Overcast
9:08 AM 39.2 °F 28.7 °F 35.6 °F 87% 29.80 in 10.0 mi WNW 23.0 mph 33.4 mph N/A   Overcast
9:20 AM 39.2 °F 28.3 °F 33.8 °F 81% 29.81 in 10.0 mi WNW 25.3 mph 33.4 mph 0.00 in Rain Light Rain
9:56 AM 39.0 °F 28.5 °F 35.1 °F 86% 29.88 in 10.0 mi NW 23.0 mph 34.5 mph 0.00 in   Overcast
10:56 AM 39.9 °F 29.7 °F 35.1 °F 83% 29.92 in 10.0 mi NW 23.0 mph 32.2 mph 0.00 in   Overcast
11:56 AM 41.0 °F 30.0 °F 34.0 °F 76% 29.95 in 10.0 mi NW 28.8 mph 38.0 mph N/A   Overcast
12:17 PM 42.8 °F 32.9 °F 33.8 °F 70% 29.90 in 10.0 mi NW 26.5 mph 32.2 mph N/A   Mostly Cloudy
12:56 PM 44.1 °F 34.0 °F 32.0 °F 63% 29.96 in 10.0 mi NW 29.9 mph 35.7 mph N/A   Mostly Cloudy
1:56 PM 46.9 °F - 30.0 °F 52% 29.96 in 10.0 mi NNW 26.5 mph 35.7 mph N/A   Mostly Cloudy
2:56 PM 48.0 °F - 30.0 °F 50% 29.98 in 10.0 mi NW 20.7 mph 33.4 mph N/A   Scattered Clouds
3:56 PM 48.0 °F - 28.0 °F 46% 29.99 in 10.0 mi NW 18.4 mph 28.8 mph N/A   Clear
4:56 PM 46.0 °F 40.2 °F 28.0 °F 50% 30.01 in 10.0 mi NW 12.7 mph 21.9 mph N/A   Clear
5:56 PM 37.9 °F 32.7 °F 27.0 °F 65% 30.03 in 10.0 mi WNW 6.9 mph - N/A   Scattered Clouds
6:56 PM 35.1 °F 31.0 °F 27.0 °F 72% 30.05 in 10.0 mi West 4.6 mph - N/A   Scattered Clouds
7:56 PM 32.0 °F 27.5 °F 25.0 °F 75% 30.06 in 10.0 mi West 4.6 mph - N/A   Clear
8:56 PM 32.0 °F 24.2 °F 25.0 °F 75% 30.06 in 10.0 mi West 9.2 mph - N/A   Clear
9:56 PM 30.9 °F 22.8 °F 25.0 °F 79% 30.07 in 10.0 mi West 9.2 mph - N/A   Clear
10:56 PM 30.0 °F 23.2 °F 24.1 °F 79% 30.08 in 10.0 mi West 6.9 mph - N/A   Clear
11:56 PM 30.0 °F 21.7 °F 24.1 °F 79% 30.08 in 10.0 mi West 9.2 mph - N/A   Clear